Showing default

SINOD-D 1, 40974

Orbit data source: Space-Track

SINOD-D 1, 40974 is a payload satellite owned by SRI (US) in LEO that was launched on Thu, 08 Oct 2015 UTC via an ATLAS V 401 launch vehicle from the Air Force Western Test Range (AFWTR). Payload-class satellites include a variety of spacecraft equipped with specific instruments for various scientific and technological missions. These include communications satellites like Starlink; space stations such as the ISS; scientific satellites like the Hubble; Earth observation satellites from companies like Planet Labs, Umbra, and HawkEye 360; GPS; miniature CubeSats for education and research; and military/defense satellites.

Loading next visibility...
Identifier
40974, 2015-058L
Orbit
LEO
Country
Flag of USUS
Related business
Manufacturer
SRI
Mission
Operational Commercial Technology
Bus & Motor
CUBESAT 2U, Unknown motor
Mass
2 kg wet, 2 kg dry
Launch date (UTC)
2015-10-08 (10 years ago)
Launch vehicle
ATLAS V 401
Launch site
Air Force Western Test Range (AFWTR)
Object type
Payload
Rocket body
Debris
Shape & HBR
Box, 0.1 m
Radar Cross Section
0.025 m², Small (<0.1 m²)

Expand to show TLE details & history
Last TLE update: 14 hours ago

TLE from 14 hours ago
0 SINOD-D 1
1 40974U 15058L   25302.44285384  .00015270  00000-0  86149-3 0  9999
2 40974  64.7612 196.1646 0095334 147.9702 212.7263 15.09501632 80709
Epoch: 2025-10-29T10:37Z
TLE epoch observation values (Epoch: 2025-10-29T10:37:42.571Z)
Latitude
-0.00008°
Longitude
-1.27874°
Altitude
595.398 km
Speed
7.532 km/s
True Right ascension
13h 04m 39s
True Declination
0° 00' 00"
Sunlit
Object was in daylight at epoch
Visualization orbit readout
Latitude
Unknown
Longitude
Unknown
Altitude
Unknown
Speed
Unknown
Apparent Right ascension
Unknown
Apparent Declination
Unknown
Sunlit
N/A
Visualization observer readout
Local Sidereal Time
19:51:43
Azimuth
Unknown
Elevation
Unknown
Doppler factor
Unknown
Orbital elements
Apogee altitude
602.197 km
Perigee altitude
470.361 km
Semi-major axis
6,914.416 km
Eccentricity
0.00953
Inclination
64.7612°
RAAN
196.1646°
Arg. of periapsis
147.9702°
True anomaly
212.14157°
Mean anomaly
212.7263°
Eccentric anomaly
212.43335°
Mean motion
3.77494 °/min
Orbital period
95.37 mins
BSTAR
0.00086149
Loading maneuver chart data...
Computing Atmospheric mass density...
Loading historical data...
Loading historical data...
Loading historical data...
Loading historical data...
Loading historical data...
Loading historical data...
Loading historical data...

Documentation

Showing up to 5 results
|